Location: Vancouver
(49.2500°N, 123.1330°W)
Time: 14:55:00
(UTC-07:00)

Transit 2A Rocket - Visible Passes

Search period start: 30 September 2014 00:00
Search period end: 10 October 2014 00:00
Orbit: 593 x 916 km, 66.7° (Epoch: 30 September)

Date Brightness Start Highest point End Pass type
(mag) Time Alt. Az. Time Alt. Az. Time Alt. Az.
30 Sep 7.5 02:56:16 13° N 02:56:16 13° N 02:57:06 10° NNE visible
30 Sep 7.3 06:20:43 10° NNW 06:23:41 16° NNE 06:26:48 10° ENE visible
01 Oct 7.9 02:15:38 10° NNE 02:15:38 10° NNE 02:15:39 10° NNE visible
01 Oct 7.4 05:39:18 10° N 05:41:29 13° NNE 05:43:43 10° NE visible
02 Oct 7.6 03:14:57 11° N 03:14:57 11° N 03:15:47 10° N visible
02 Oct 7.5 04:57:58 10° N 04:59:12 11° NNE 05:00:27 10° NNE visible
02 Oct 7.0 06:39:28 10° NNW 06:43:35 25° NE 06:48:00 10° E visible
03 Oct 7.8 02:34:20 10° N 02:34:20 10° N 02:34:25 10° N visible
03 Oct 7.3 05:57:58 10° NNW 06:01:31 19° NNE 06:05:16 10° ENE visible
04 Oct 7.4 05:16:31 10° NNW 05:19:22 15° NNE 05:22:21 10° ENE visible
05 Oct 7.5 04:35:05 10° N 04:37:08 12° NNE 04:39:15 10° NE visible
05 Oct 6.7 06:16:46 10° NNW 06:21:17 32° NE 06:26:10 10° ESE visible
06 Oct 7.6 03:53:42 10° N 03:54:50 11° N 03:55:59 10° NNE visible
06 Oct 7.1 05:35:14 10° NNW 05:39:17 24° NE 05:43:37 10° E visible
07 Oct 7.4 04:53:45 10° NNW 04:57:12 18° NNE 05:00:50 10° ENE visible
07 Oct 5.6 06:35:42 10° NNW 06:40:46 62° NE 06:46:19 10° SE visible
08 Oct 7.5 04:12:16 10° N 04:15:01 15° NNE 04:17:52 10° NE visible
08 Oct 6.2 05:54:05 10° NNW 05:58:56 42° NE 06:04:11 10° ESE visible
09 Oct 7.6 03:30:58 10° N 03:32:45 12° NNE 03:34:45 10° NE visible
09 Oct 6.8 05:12:32 10° NNW 05:17:00 30° NE 05:21:49 10° E visible
